SCP
0 0 0 0 -0 -0 0 0 0 0 0 0 0 0 0 0 0 0 0 0 0 0 0 0 0 0 0 0 0 0 0 0 0 0 0 0 0 0 0 0 0 0 0
0 0 0 0 -0 -0 -0 0 0 0 0 0 0 0 0 0 0 0 0 0 0 0 0 0 0 0 0 0 0 0 0 0 0 0 0 0 0 0 0 0 0 0 0
0 0 0 0 0 -0 -0 0 0 0 0 0 0 0 0 0 0 0 0 0 0 0 0 0 0 0 0 0 0 0 0 0 0 0 0 0 0 0 0 0 0 0 0
0 0 0 0 0 0 0 0 0 0 0 0 0 0 0 0 0 0 0 0 0 0 0 0 0 0 0 0 0 0 0 0 0 0 0 0 0 0 0 0 0 0 0
0 0 0 0 0 0 0 0 0 0 0 0 0 0 0 0 0 0 0 0 0 0 0 0 0 0 0 0 0 0 0 0 0 0 0 0 0 0 0 0 0 0 0
0 0 0 0 0 0 0 0 0 0 0 0 0 0 0 0 0 0 0 0 0 0 0 0 0 0 0 0 0 0 0 0 0 0 0 0 0 0 0 0 0 0 0
0 0 0 0 0 0 0 0 0 0 0 0 0 0 0 0 0 0 0 0 0 0 0 0 0 0 0 0 0 0 0 0 0 0 0 0 0 0 0 0 0 0 0
0 0 0 0 0 0 0 0 0 0 0 0 0 0 0 0 0 0 0 0 0 0 0 0 0 0 0 0 0 0 0 0 0 0 0 0 0 0 0 0 0 0 0
0 0 0 0 0 0 0 0 0 0 0 0 0 0 0 0 0 0 0 0 0 0 0 0 0 0 0 0 0 0 0 0 0 0 0 0 0 0 0 0 0 0 0
0 0 0 0 0 0 0 0 0 0 0 0 0 0 0 0 0 0 0 0 0 0 0 0 0 0 0 0 0 0 0 0 0 0 0 0 0 0 0 0 0 0 0
0 0 0 0 0 0 0 0 -0 -0 0 0 0 0 0 0 0 0 0 0 0 0 0 0 0 0 0 0 0 0 0 0 0 0 0 0 0 0 0 0 0 0 0
0 0 0 0 0 0 0 0 0 0 0 0 0 0 0 0 0 0 0 0 0 0 0 0 0 0 0 0 0 0 0 0 0 0 0 0 0 0 0 0 0 0 0
0 0 0 0 0 0 0 0 0 0 0 0 0 0 0 0 0 0 0 0 0 0 0 0 0 0 0 0 0 0 0 0 0 0 0 0 0 0 0 0 0 0 0
0 0 0 0 0 0 0 0 0 0 0 0 0 0 0 0 0 0 0 0 0 0 0 0 0 0 0 0 0 0 0 0 0 0 0 0 0 0 0 0 0 0 0
0 0 0 0 0 0 0 0 0 0 0 0 0 0 0 0 0 0 0 0 0 0 0 0 0 0 0 0 0 0 0 0 0 0 0 0 0 0 0 0 0 0 0
0 0 0 0 0 0 0 0 0 0 0 0 0 0 0 0 0 0 0 0 0 0 0 0 -0 0 0 0 0 0 0 0 0 0 0 0 0 0 0 0 0 0 0
0 0 0 -0 0 0 0 0 0 0 0 0 0 0 0 0 0 0 0 0 0 0 0 0 0 0 0 0 0 0 0 0 0 0 0 0 0 0 0 0 0 0 0
0 0 -0 0 0 0 0 0 0 0 0 0 0 0 0 0 0 0 0 0 0 0 0 0 0 0 0 0 0 0 0 0 0 0 0 0 0 0 0 0 0 0 0
0 0 0 0 0 0 0 0 0 0 0 0 0 0 0 0 0 0 0 0 0 0 0 0 0 0 0 0 0 0 0 0 0 0 0 0 0 0 0 0 0 0 0
0 0 0 0 0 0 0 0 0 0 0 0 0 0 0 0 0 0 0 0 0 0 0 0 0 0 0 0 0 0 0 0 0 0 0 0 0 0 0 0 0 0 0
0 0 0 0 0 0 0 0 0 0 0 0 0 0 0 0 0 0 0 0 0 0 0 0 0 0 0 0 0 0 0 -0 0 0 0 0 0 0 0 0 0 0 0
0 0 0 0 0 0 0 0 0 0 0 0 0 0 0 0 0 0 0 0 0 0 0 0 0 0 0 0 0 0 0 0 0 0 0 0 0 0 0 0 0 0 0
0 0 0 0 0 0 0 0 0 0 0 0 0 0 0 0 0 0 0 0 0 0 0 0 0 0 0 0 0 0 0 0 0 0 0 0 0 0 0 0 0 0 0
0 0 0 0 0 0 0 0 0 0 0 0 0 0 0 0 0 0 0 0 0 0 0 0 0 0 0 0 0 0 0 0 0 0 0 0 0 0 0 0 0 0 0
0 0 0 0 0 0 0 0 0 0 0 0 0 0 0 0 0 0 0 0 0 0 0 0 0 0 0 0 0 0 0 0 0 0 0 0 0 0 0 0 0 0 0
0 0 0 0 0 0 0 0 0 0 0 0 0 0 0 0 0 0 0 0 0 0 0 0 0 0 0 0 0 0 0 0 0 0 0 0 0 0 0 0 0 0 0
Wind_Speed
2 1 1 1 2 2 2 2 3 3 4 4 4 5 4 4 3 3 3 7 9 9 9 8 8 7 7 7 6 6 6 5 4 3 2 2 2 3 3 4 3 3 4
2 2 2 2 2 2 2 2 3 3 3 3 4 4 4 4 4 4 3 4 8 8 9 9 8 8 8 7 7 7 6 6 5 3 3 3 3 3 4 4 4 4 4
3 3 3 3 2 2 3 3 4 4 4 4 4 4 4 4 4 4 4 3 4 8 9 10 10 9 9 9 9 8 7 7 6 4 3 3 4 4 4 4 4 4 4
4 4 3 3 3 3 3 3 3 4 4 3 3 3 3 3 4 4 4 3 3 4 7 10 11 10 10 10 10 9 9 8 7 6 5 4 4 4 4 4 4 4 4
4 4 3 3 3 3 3 3 3 3 3 3 3 4 4 3 3 4 4 4 4 4 4 7 10 11 11 11 11 11 10 9 8 7 6 5 4 4 4 4 4 4 4
4 4 4 4 4 4 3 3 3 3 3 2 4 5 4 4 4 4 4 4 3 4 4 5 5 7 11 12 12 12 11 10 9 9 9 8 7 6 5 4 4 4 4
5 5 4 4 4 4 3 3 3 4 4 2 4 4 4 5 5 4 4 4 5 4 4 4 4 4 5 11 12 13 13 11 11 10 10 10 9 8 7 6 6 5 5
4 4 4 3 3 4 5 4 3 3 3 3 3 3 3 4 4 5 4 4 4 4 4 4 4 4 4 4 7 13 13 12 11 11 11 11 10 10 9 8 8 7 7
4 4 4 4 3 3 3 3 3 4 2 3 3 3 3 1 1 3 4 4 4 4 3 3 4 4 4 4 4 8 12 12 11 11 11 11 11 10 10 9 9 8 8
4 4 4 4 4 3 3 3 4 3 3 2 2 2 2 3 3 1 3 3 4 4 4 4 4 4 4 4 5 9 11 12 13 13 12 11 11 11 10 10 10 10 9
3 3 4 4 4 3 3 4 4 4 3 2 2 1 3 3 3 3 1 3 3 3 3 3 3 3 4 4 4 7 11 11 12 12 12 12 11 11 11 10 10 10 10
2 3 3 4 4 3 3 3 3 4 3 4 3 3 2 2 1 2 2 0 1 2 3 3 3 3 3 3 5 9 10 10 10 11 12 12 12 12 12 11 10 10 10
1 1 2 3 3 3 3 3 4 4 4 4 3 2 2 2 1 2 3 1 1 2 2 3 3 3 3 3 4 8 8 9 9 10 10 11 11 11 11 11 11 11 10
2 2 3 3 3 3 4 4 3 3 3 4 4 3 3 2 2 2 2 3 2 2 3 3 2 3 3 3 4 6 5 8 8 8 9 9 10 10 10 11 11 11 11
2 3 3 3 3 3 3 4 3 3 3 3 3 4 3 2 2 2 2 2 4 2 2 3 3 3 3 2 4 3 3 7 8 8 8 9 9 9 9 10 10 11 10
3 4 4 3 3 3 3 4 3 3 4 3 3 4 4 2 3 3 2 2 3 3 1 1 2 2 3 4 6 4 4 7 7 8 8 8 8 8 8 9 9 10 10
4 4 4 4 4 3 3 4 3 4 4 3 3 4 4 3 3 3 3 3 3 3 3 1 2 3 4 4 4 4 3 3 4 7 8 7 8 8 8 8 9 9 9
4 4 4 4 3 3 3 4 4 4 4 4 3 4 3 3 4 3 3 3 2 2 3 1 2 3 3 3 3 3 4 4 3 6 8 7 7 7 7 8 8 8 9
4 4 4 4 3 3 3 4 4 4 3 3 3 3 3 4 3 2 3 3 2 3 2 2 1 2 2 3 3 4 4 3 4 5 7 7 8 9 8 8 8 9 9
5 4 4 4 4 3 4 4 4 4 4 3 3 3 3 3 3 2 3 2 3 3 3 2 1 2 2 3 2 3 4 3 4 5 5 6 7 9 10 10 9 9 9
5 5 4 3 3 3 4 5 4 5 4 3 3 3 3 4 4 3 3 2 3 3 2 2 2 2 2 3 3 2 2 3 3 3 3 4 4 3 5 7 8 10 10
4 4 4 4 4 3 6 8 6 4 4 4 3 2 2 3 4 5 5 5 4 3 2 2 1 1 2 2 2 2 2 3 4 3 2 3 3 3 4 3 7 11 11
4 4 4 4 4 4 7 8 8 5 4 3 2 2 2 3 3 2 4 5 4 4 4 3 2 1 1 2 1 2 2 1 2 3 2 3 3 3 4 5 10 11 12
4 4 4 4 4 4 8 9 9 5 4 3 2 2 2 1 2 3 3 2 2 2 1 1 2 2 1 1 1 1 2 2 3 3 1 3 3 3 5 4 9 12 12
4 4 4 4 4 3 7 9 8 4 3 2 1 2 2 2 2 4 3 2 1 2 2 2 2 2 4 4 3 2 2 2 4 4 2 1 3 4 4 4 6 11 11
4 4 3 3 4 3 6 7 8 4 3 2 1 1 2 2 2 3 2 2 1 2 1 2 3 4 3 4 5 1 0 1 2 3 3 1 3 3 4 3 3 4 5
Wind_Direction
89 64 42 32 23 28 40 44 53 58 61 65 77 81 76 73 74 62 55 74 76 71 68 65 63 59 57 54 50 47 42 43 47 49 54 65 79 79 78 74 67 60 72
91 77 59 44 33 36 55 67 65 66 62 71 71 71 74 72 70 71 59 62 70 68 64 60 59 56 53 48 46 45 41 36 38 40 52 66 81 87 85 76 71 66 66
82 78 64 48 36 43 57 60 53 56 63 66 62 68 79 80 75 68 62 50 51 59 60 57 55 52 48 46 45 43 37 31 27 36 59 78 87 81 75 71 70 63 61
79 75 66 50 40 50 58 66 54 56 53 56 56 58 66 70 71 70 63 56 50 49 48 52 52 49 44 41 40 38 35 32 32 47 61 68 86 84 81 75 72 63 53
70 76 69 53 52 56 51 67 58 67 63 58 72 61 53 58 59 68 63 59 56 54 44 48 49 46 42 38 35 34 33 35 39 48 52 62 84 85 79 70 65 59 46
65 71 68 55 57 61 51 58 64 56 63 62 75 62 45 44 49 54 53 54 54 54 48 44 36 38 40 38 35 33 32 37 43 46 48 64 79 77 72 67 63 55 46
70 75 72 61 60 66 62 63 73 62 45 50 71 51 28 33 44 40 42 50 46 43 48 48 39 33 30 36 33 34 35 41 44 47 48 57 65 64 61 59 59 54 47
64 81 81 74 67 68 57 54 65 71 43 41 91 88 42 13 14 26 33 52 47 43 48 53 49 42 35 25 26 33 35 39 44 46 47 48 52 53 52 52 54 54 52
69 78 81 81 73 75 72 60 68 82 73 33 56 117 124 156 353 360 21 34 39 44 36 38 44 38 34 25 17 23 33 34 37 40 43 45 45 46 48 49 47 46 46
67 77 82 83 78 73 74 64 67 74 90 62 23 46 105 143 129 49 353 6 28 41 33 39 37 35 32 23 23 30 34 35 38 38 40 42 43 43 44 44 41 40 40
53 66 77 79 79 76 76 69 64 66 74 85 72 61 62 57 75 118 81 347 6 15 25 28 30 32 30 25 24 34 38 38 38 37 37 39 40 40 38 38 37 35 34
41 48 72 75 79 81 78 77 76 76 72 72 70 72 90 94 95 108 125 73 6 345 10 16 20 18 20 16 26 39 41 39 39 39 40 39 38 38 36 33 32 31 29
77 55 77 78 78 83 83 80 77 73 72 75 74 72 71 83 119 118 116 114 55 344 0 4 4 11 20 13 12 29 37 37 36 37 38 37 36 37 35 32 31 28 26
156 133 112 93 84 82 81 77 73 72 72 73 73 75 72 59 74 101 128 125 82 18 14 346 339 3 4 10 11 20 26 33 34 35 36 35 33 35 34 31 28 25 23
142 123 113 103 88 81 80 83 75 69 74 69 71 72 69 56 61 64 86 116 128 107 354 330 344 339 348 14 12 15 13 25 32 33 34 33 30 29 28 26 23 22 20
129 121 113 104 91 82 79 80 77 74 79 68 72 71 58 49 55 54 66 68 96 128 123 312 313 322 352 21 23 14 11 21 23 25 26 26 26 26 24 21 18 16 14
139 133 128 116 106 95 88 87 85 84 82 69 65 75 63 59 60 49 56 61 65 94 108 331 338 344 11 14 1 2 7 10 6 17 16 17 19 19 17 15 13 9 6
143 139 133 122 116 109 102 103 101 91 91 85 78 78 66 71 61 53 62 63 65 79 112 89 348 352 359 353 354 4 5 8 355 8 7 8 7 6 4 4 3 360 357
134 129 128 129 127 123 114 111 109 102 95 93 96 98 88 83 69 58 65 64 57 59 74 98 4 340 337 349 355 353 358 350 351 1 359 1 3 5 1 356 355 353 350
136 135 135 136 136 130 122 117 111 106 98 88 93 103 100 103 109 97 76 67 73 68 63 68 31 350 333 330 4 350 343 342 343 351 354 358 358 360 358 353 350 346 343
141 140 133 129 126 127 133 131 123 118 110 98 81 82 90 96 95 102 101 105 98 87 75 65 36 11 348 348 339 320 330 323 328 343 337 340 343 342 339 339 342 342 340
134 127 129 129 123 131 135 135 131 123 120 120 110 83 73 73 77 81 90 95 107 112 115 98 61 22 308 305 312 332 336 351 329 325 341 322 339 322 311 309 328 336 337
135 128 130 130 132 139 135 133 131 128 123 127 131 117 87 74 74 82 72 68 69 78 106 139 134 213 252 269 300 336 330 311 279 296 333 309 317 310 305 321 335 339 339
139 139 144 146 143 147 138 133 130 121 114 124 140 142 131 119 101 112 99 70 45 25 50 117 160 211 236 246 213 250 264 296 292 302 341 299 307 298 305 308 326 335 336
142 145 150 150 144 150 142 136 129 121 114 126 140 135 144 160 123 112 108 100 44 346 15 51 44 23 12 13 23 30 5 0 323 310 327 293 301 303 296 295 315 331 332
149 147 145 155 157 162 153 143 140 136 135 139 116 127 145 145 125 115 129 137 149 277 328 2 4 355 348 352 8 41 198 320 306 305 313 314 304 324 314 293 299 310 319